GW1367 Weather Reports


Display with metric or nautical units.
time (UTC)temp
F
wind
direction
speed
MPH
gust
MPH
rain 1hr
in
rain 24hr
in
rain mn
in
humidity
%
barometer
mb
20260506212204 87 317 2.0 7.0 0.00 0.01 0.01 76 1014.5
20260506211705 87 123 2.0 8.0 0.00 0.01 0.01 77 1014.8
20260506211205 87 267 1.0 5.0 0.00 0.01 0.01 77 1015.4
20260506210704 87 246 0.0 2.0 0.00 0.01 0.01 77 1015.3
20260506210204 87 257 0.0 5.0 0.00 0.01 0.01 77 1015.7
20260506205704 88 204 2.0 6.0 0.00 0.01 0.01 76 1015.3
20260506205204 88 108 0.0 7.0 0.00 0.01 0.01 76 1014.9
20260506204705 88 196 0.0 6.0 0.00 0.01 0.01 75 1014.7
20260506204204 88 84 2.0 6.0 0.00 0.01 0.01 75 1014.8
20260506203705 88 279 2.0 5.0 0.00 0.01 0.01 75 1014.7
20260506203204 89 298 1.0 8.0 0.00 0.01 0.01 75 1014.7
20260506202704 89 238 1.0 8.0 0.00 0.01 0.01 75 1014.6
20260506202204 88 130 1.0 6.0 0.00 0.01 0.01 74 1014.5
20260506201704 88 112 1.0 6.0 0.00 0.01 0.01 75 1015.0
20260506201205 89 272 3.0 8.0 0.00 0.01 0.01 74 1014.4
20260506200704 89 154 1.0 7.0 0.00 0.01 0.01 74 1014.5
20260506200204 89 120 2.0 6.0 0.00 0.01 0.01 73 1013.7
20260506195704 89 182 2.0 7.0 0.00 0.01 0.01 72 1013.6
20260506195204 89 107 0.0 6.0 0.00 0.01 0.01 72 1014.0
20260506194204 88 237 1.0 8.0 0.00 0.01 0.01 75 1015.3
20260506193704 88 272 2.0 8.0 0.00 0.01 0.01 76 1015.3
20260506193205 88 286 2.0 8.0 0.00 0.01 0.01 75 1015.4
20260506192704 88 305 3.0 7.0 0.00 0.01 0.01 74 1015.0
20260506191704 87 34 3.0 8.0 0.00 0.01 0.01 76 1016.6
20260506190704 87 106 2.0 8.0 0.00 0.01 0.01 76 1016.6
20260506190204 88 269 4.0 12.0 0.00 0.01 0.01 75 1016.2
20260506185705 88 123 1.0 7.0 0.00 0.01 0.01 74 1016.0
20260506185205 88 180 1.0 7.0 0.00 0.01 0.01 74 1015.7
20260506184705 88 180 1.0 5.0 0.00 0.01 0.01 74 1015.2
20260506184204 88 152 2.0 5.0 0.00 0.01 0.01 74 1015.9
20260506183704 87 254 2.0 5.0 0.00 0.01 0.01 76 1016.5
20260506183204 87 272 2.0 6.0 0.00 0.01 0.01 75 1016.3
20260506182705 87 93 2.0 9.0 0.00 0.01 0.01 74 1016.1
20260506182206 87 115 1.0 7.0 0.00 0.01 0.01 75 1016.3
20260506181705 87 260 1.0 5.0 0.00 0.01 0.01 75 1016.0
20260506180705 86 289 2.0 7.0 0.00 0.01 0.01 79 1017.7
20260506180205 87 241 2.0 6.0 0.00 0.01 0.01 77 1017.1
20260506175206 87 247 1.0 6.0 0.00 0.01 0.01 77 1017.1
20260506174705 87 262 1.0 6.0 0.00 0.01 0.01 77 1017.2
20260506174205 86 219 2.0 6.0 0.00 0.01 0.01 78 1018.1
20260506173706 85 99 1.0 3.0 0.00 0.01 0.01 79 1018.5
20260506172706 85 118 2.0 5.0 0.00 0.01 0.01 79 1018.9
20260506172206 85 234 1.0 6.0 0.00 0.01 0.01 81 1019.7
20260506171705 84 205 1.0 6.0 0.00 0.01 0.01 81 1020.2
20260506170205 84 251 1.0 9.0 0.00 0.01 0.01 81 1020.5
20260506165705 84 130 1.0 3.0 0.00 0.01 0.01 81 1020.7
20260506165206 84 255 2.0 8.0 0.00 0.01 0.01 83 1021.9
20260506164706 84 251 1.0 5.0 0.00 0.01 0.01 83 1022.0
20260506164206 84 288 1.0 5.0 0.00 0.01 0.01 82 1020.7
20260506163705 84 247 2.0 8.0 0.00 0.01 0.01 82 1020.6
20260506163206 83 279 1.0 5.0 0.00 0.01 0.01 82 1021.6
20260506162705 83 291 1.0 8.0 0.00 0.01 0.01 84 1023.9
20260506162205 84 238 2.0 6.0 0.00 0.01 0.01 84 1023.5
20260506161705 84 245 1.0 6.0 0.00 0.01 0.01 82 1020.9
20260506160705 83 270 1.0 5.0 0.00 0.01 0.01 83 1023.2
20260506155205 83 247 2.0 5.0 0.00 0.01 0.01 84 1024.3
20260506154705 82 128 0.0 3.0 0.00 0.01 0.01 85 1027.1
20260506154205 82 117 1.0 3.0 0.00 0.01 0.01 85 1028.5
20260506153205 82 277 1.0 7.0 0.00 0.01 0.01 86 1030.4
20260506152705 82 173 2.0 6.0 0.00 0.01 0.01 87 1032.2
20260506152205 81 104 1.0 5.0 0.00 0.01 0.01 88 1035.4
20260506151705 81 279 1.0 5.0 0.00 0.01 0.01 88 1036.7
20260506151205 81 101 1.0 5.0 0.00 0.01 0.01 89 1039.9
20260506150705 80 286 0.0 3.0 0.00 0.01 0.01 90 1042.2
20260506150205 80 241 1.0 3.0 0.00 0.01 0.01 90 1044.1
20260506145705 80 291 0.0 3.0 0.00 0.01 0.01 90 1045.9
20260506145205 80 279 1.0 3.0 0.00 0.01 0.01 91 1046.8
20260506144706 80 258 1.0 5.0 0.00 0.01 0.01 91 1047.2
20260506144206 79 291 1.0 6.0 0.00 0.01 0.01 91 1048.6
20260506143705 79 255 1.0 5.0 0.00 0.01 0.01 92 1050.7
20260506143204 79 282 2.0 5.0 0.00 0.01 0.01 92 1051.4
20260506142705 79 272 0.0 3.0 0.00 0.01 0.01 93 1053.0
20260506142205 78 269 0.0 0.0 0.00 0.01 0.01 93 1053.1
20260506141705 78 194 0.0 2.0 0.00 0.01 0.01 93 1053.4
20260506141205 78 126 0.0 0.0 0.00 0.01 0.01 93 1054.5
20260506140705 78 126 0.0 0.0 0.00 0.01 0.01 94 1054.9
20260506140205 77 126 0.0 2.0 0.00 0.01 0.01 94 1055.2
20260506135705 77 116 0.0 2.0 0.00 0.01 0.01 94 1055.4
20260506135205 77 109 0.0 0.0 0.00 0.01 0.01 94 1055.9
20260506134705 77 109 0.0 1.0 0.00 0.01 0.01 94 1055.8
20260506134205 77 141 0.0 0.0 0.00 0.01 0.01 94 1056.0
20260506133705 77 141 0.0 0.0 0.00 0.01 0.01 94 1056.2
20260506132706 76 141 0.0 1.0 0.00 0.01 0.01 94 1056.1
20260506131705 76 248 0.0 0.0 0.00 0.01 0.01 94 1056.4
20260506131205 76 248 0.0 0.0 0.00 0.01 0.01 94 1056.6
20260506130205 76 248 0.0 0.0 0.00 0.01 0.01 95 1057.0
20260506125705 76 248 0.0 0.0 0.00 0.01 0.01 95 1056.9
20260506125205 76 248 0.0 0.0 0.00 0.01 0.01 95 1057.0
20260506124705 76 248 0.0 0.0 0.00 0.01 0.01 95 1057.1
20260506124204 76 248 0.0 0.0 0.00 0.01 0.01 95 1057.2
20260506123205 75 313 0.0 3.0 0.00 0.01 0.01 95 1057.2
20260506122205 75 116 0.0 2.0 0.00 0.01 0.01 95 1057.1
20260506121705 75 98 0.0 0.0 0.00 0.01 0.01 95 1057.7
20260506121205 75 98 0.0 0.0 0.00 0.01 0.01 95 1057.7
20260506120706 75 99 0.0 3.0 0.00 0.01 0.01 95 1057.8
20260506115705 75 97 0.0 0.0 0.00 0.01 0.01 95 1057.5
20260506115205 74 97 0.0 2.0 0.00 0.01 0.01 95 1057.5
20260506114705 74 270 0.0 0.0 0.00 0.01 0.01 95 1057.4
20260506114205 74 112 0.0 0.0 0.00 0.01 0.01 96 1057.6
20260506113207 74 112 0.0 0.0 0.00 0.01 0.01 96 1057.6
20260506112707 74 112 1.0 3.0 0.00 0.01 0.01 96 1057.0
20260506112205 74 115 1.0 3.0 0.00 0.01 0.01 96 1057.6
20260506111706 74 112 0.0 3.0 0.00 0.01 0.01 96 1057.8
20260506110705 74 108 0.0 3.0 0.00 0.01 0.01 96 1058.1
20260506110205 74 116 0.0 3.0 0.00 0.01 0.01 96 1058.3
20260506105707 74 340 0.0 3.0 0.00 0.01 0.01 96 1058.6
20260506105205 74 124 0.0 1.0 0.00 0.01 0.01 96 1058.5
20260506104705 74 113 0.0 0.0 0.00 0.01 0.01 96 1058.3
20260506104205 74 113 0.0 2.0 0.00 0.01 0.01 96 1058.2
20260506103705 74 347 0.0 0.0 0.00 0.01 0.01 96 1058.3
20260506103205 74 347 0.0 1.0 0.00 0.01 0.01 96 1058.3
20260506102706 74 14 0.0 1.0 0.00 0.01 0.01 96 1058.3
20260506102206 74 104 0.0 0.0 0.00 0.01 0.01 96 1058.1
20260506101704 74 104 0.0 0.0 0.00 0.01 0.01 96 1058.1
20260506101206 74 104 0.0 0.0 0.00 0.01 0.01 96 1058.0
20260506100706 74 136 0.0 3.0 0.00 0.01 0.01 96 1057.8
20260506100205 74 157 0.0 2.0 0.00 0.01 0.01 96 1057.8
20260506095705 74 111 1.0 2.0 0.00 0.01 0.01 96 1058.1
20260506095205 74 89 0.0 0.0 0.00 0.01 0.01 96 1058.6
20260506094707 74 118 0.0 0.0 0.00 0.01 0.01 96 1058.5
20260506094205 74 118 0.0 3.0 0.00 0.01 0.01 96 1057.7
20260506093205 73 111 0.0 2.0 0.00 0.01 0.01 96 1058.4
20260506092705 73 96 0.0 1.0 0.00 0.01 0.01 96 1058.2
20260506092205 73 301 0.0 3.0 0.00 0.01 0.01 96 1058.2
20260506091206 73 115 0.0 0.0 0.00 0.01 0.01 96 1057.4
20260506090205 73 109 0.0 1.0 0.00 0.01 0.01 96 1057.1
20260506085704 73 102 0.0 0.0 0.00 0.01 0.01 96 1057.0
20260506085205 73 102 0.0 2.0 0.00 0.01 0.01 96 1056.5
20260506084705 73 118 0.0 0.0 0.00 0.01 0.01 96 1056.8
20260506083705 73 116 1.0 3.0 0.00 0.01 0.01 95 1056.4
20260506083205 73 70 0.0 2.0 0.00 0.01 0.01 95 1056.5
20260506082205 73 112 0.0 0.0 0.00 0.01 0.01 95 1055.9
20260506081705 73 112 0.0 0.0 0.00 0.01 0.01 95 1055.7
20260506081205 73 112 0.0 2.0 0.00 0.01 0.01 95 1055.1
20260506080705 74 112 0.0 1.0 0.00 0.01 0.01 94 1054.6
20260506080205 74 119 0.0 0.0 0.00 0.01 0.01 94 1054.6
20260506073205 74 111 0.0 2.0 0.00 0.01 0.01 94 1054.0
20260506072705 74 111 0.0 0.0 0.00 0.01 0.01 94 1054.3
20260506071704 74 116 0.0 2.0 0.00 0.01 0.01 94 1054.3
20260506071205 74 118 0.0 2.0 0.00 0.01 0.01 94 1054.2
20260506070705 74 95 0.0 1.0 0.00 0.01 0.01 94 1054.5
20260506070205 74 264 2.0 3.0 0.00 0.01 0.01 94 1054.5
20260506062205 74 115 0.0 2.0 0.00 0.01 0.01 94 1052.2
20260506061705 74 110 1.0 3.0 0.00 0.01 0.01 94 1051.9
20260506060204 74 60 0.0 3.0 0.00 0.01 0.01 94 1053.3
20260506051205 73 113 0.0 0.0 0.00 0.01 0.01 93 1052.1
20260506050704 73 113 0.0 0.0 0.00 0.01 0.01 93 1051.5
20260506044705 73 101 0.0 0.0 0.00 0.01 0.01 92 1048.4
20260506044205 73 101 0.0 0.0 0.00 0.01 0.01 92 1048.2
20260506043704 73 101 0.0 0.0 0.00 0.01 0.01 92 1046.8
20260506043205 73 101 0.0 0.0 0.00 0.01 0.01 92 1045.7
20260506042705 74 101 0.0 3.0 0.00 0.01 0.01 91 1043.8
20260506042205 74 123 0.0 1.0 0.00 0.01 0.01 91 1042.9
20260506041705 74 106 0.0 2.0 0.00 0.01 0.01 90 1041.5
20260506041204 74 121 0.0 0.0 0.00 0.01 0.01 90 1040.7
20260506040705 74 121 1.0 5.0 0.00 0.01 0.01 90 1039.5
20260506040205 74 98 0.0 3.0 0.00 0.01 0.01 90 1039.5
20260506035705 74 136 0.0 3.0 0.00 0.01 0.01 90 1040.3
20260506034705 74 116 0.0 0.0 0.00 0.01 0.01 89 1036.2
20260506034204 75 116 0.0 3.0 0.00 0.01 0.01 89 1033.9
20260506033706 75 147 0.0 0.0 0.00 0.01 0.01 88 1032.6
20260506033205 75 147 0.0 0.0 0.00 0.01 0.01 88 1031.0
20260506031705 76 139 0.0 3.0 0.00 0.01 0.01 87 1028.2
20260506031206 76 105 0.0 2.0 0.00 0.01 0.01 87 1027.0
20260506030704 76 111 0.0 2.0 0.00 0.01 0.01 86 1026.6
20260506030205 76 79 0.0 2.0 0.00 0.01 0.01 86 1026.0
20260506025704 76 121 0.0 2.0 0.00 0.01 0.01 86 1025.5
20260506025204 76 148 0.0 3.0 0.00 0.01 0.01 86 1025.1
20260506024704 76 116 0.0 0.0 0.00 0.01 0.01 86 1025.1
20260506024204 76 116 1.0 3.0 0.00 0.01 0.01 86 1024.5
20260506023205 77 107 1.0 3.0 0.00 0.01 0.01 85 1023.0
20260506022704 77 250 0.0 2.0 0.00 0.01 0.01 86 1023.7
20260506021705 77 149 0.0 2.0 0.00 0.01 0.01 85 1022.3
20260506020704 78 106 1.0 3.0 0.00 0.01 0.01 84 1019.7
20260506020205 78 103 0.0 3.0 0.00 0.01 0.01 84 1019.8
20260506015705 78 100 0.0 2.0 0.00 0.01 0.01 83 1018.2
20260506014204 78 104 0.0 3.0 0.00 0.01 0.01 82 1016.0
20260506013705 78 219 0.0 3.0 0.00 0.01 0.01 81 1015.6
20260506013205 79 117 0.0 2.0 0.00 0.01 0.01 80 1015.2
20260506012704 79 131 1.0 2.0 0.00 0.01 0.01 80 1014.9
20260506012205 79 109 1.0 3.0 0.00 0.01 0.01 79 1014.4
20260506011704 79 110 1.0 3.0 0.00 0.01 0.01 79 1014.4
20260506010705 79 109 1.0 3.0 0.00 0.01 0.01 78 1014.1
20260506010205 80 226 1.0 3.0 0.00 0.01 0.01 78 1014.5
20260506005704 80 285 1.0 3.0 0.00 0.01 0.01 78 1014.1
20260506005204 80 283 1.0 5.0 0.00 0.01 0.01 78 1014.1
20260506004704 80 107 1.0 5.0 0.00 0.01 0.01 77 1014.1
20260506004205 80 105 1.0 3.0 0.00 0.01 0.01 77 1014.1
20260506003205 81 98 0.0 3.0 0.00 0.01 0.01 76 1013.7
20260506002705 81 176 1.0 3.0 0.00 0.01 0.01 76 1013.7
20260506002204 81 146 1.0 6.0 0.00 0.01 0.01 76 1013.9
20260506001704 82 287 1.0 5.0 0.00 0.01 0.01 75 1013.8
20260506000704 82 269 1.0 3.0 0.00 0.01 0.01 74 1013.4
20260506000205 82 290 1.0 3.0 0.00 0.01 0.01 74 1013.3
20260505235704 82 94 3.0 8.0 0.00 0.01 0.01 74 1013.4
20260505235204 82 128 1.0 7.0 0.00 0.01 0.01 73 1013.2
20260505234704 82 113 2.0 8.0 0.00 0.01 0.01 73 1013.1
20260505234204 82 97 3.0 8.0 0.00 0.01 0.01 73 1013.2
20260505233705 83 106 1.0 7.0 0.00 0.01 0.01 72 1012.8
20260505233205 83 125 1.0 7.0 0.00 0.01 0.01 73 1013.1
20260505232704 83 266 2.0 9.0 0.00 0.01 0.01 73 1013.0
20260505232204 83 224 1.0 5.0 0.00 0.01 0.01 71 1012.4
20260505231705 83 162 2.0 7.0 0.00 0.01 0.01 70 1012.1
20260505231205 83 292 1.0 6.0 0.00 0.01 0.01 70 1012.1
20260505230704 84 280 1.0 8.0 0.00 0.01 0.01 70 1011.9
20260505230204 84 102 2.0 6.0 0.00 0.01 0.01 69 1011.6
20260505225705 83 251 0.0 8.0 0.00 0.01 0.01 70 1012.1
20260505224705 84 263 1.0 6.0 0.00 0.01 0.01 70 1011.9
20260505224204 84 260 1.0 8.0 0.00 0.01 0.01 68 1011.3
20260505223705 84 239 2.0 10.0 0.00 0.01 0.01 69 1011.5
20260505223204 84 117 2.0 3.0 0.00 0.01 0.01 68 1011.2
20260505222704 85 267 3.0 6.0 0.00 0.01 0.01 68 1011.2
20260505222204 85 118 1.0 8.0 0.00 0.01 0.01 66 1010.9
20260505221704 85 272 1.0 6.0 0.00 0.01 0.01 66 1011.1
20260505221204 85 205 0.0 5.0 0.00 0.01 0.01 67 1011.3
20260505220704 85 108 2.0 8.0 0.00 0.01 0.01 66 1011.0
20260505220205 85 140 1.0 7.0 0.00 0.01 0.01 66 1011.0
20260505215204 85 273 1.0 8.0 0.00 0.01 0.01 67 1011.1
20260505214704 85 251 1.0 8.0 0.00 0.01 0.01 68 1011.4
20260505214204 85 249 1.0 5.0 0.00 0.01 0.01 67 1011.2
20260505213204 86 259 3.0 6.0 0.00 0.01 0.01 66 1010.9